sat.trackr.live / text

‹ back to catalog

SKYTERRA 1

NORAD 37218 · 2010-061A

PAYLOAD ACTIVE UNKNOWN

§ Identity

Operator
Country
US
Launch date
2010-11-14
Launch site
TYMSC
Launch vehicle
Mass (kg)
RCS (m²)
0.00

Purposes: comms

External: N2YO · Heavens-Above · Gunter

§ Orbital elements

Epoch: 2026-09-19T14:57:35.991936Z

Period
1,436.09 min
Inclination
5.3233°
Eccentricity
0.0000919
Mean motion
1.00272248 rev/d
Perigee alt
35,782.6 km
Apogee alt
35,790.3 km
Semi-major
42,164.6 km
B*
0.0000e+0
RAAN
50.6279°
Arg perigee
149.8822°
Mean anomaly
281.1468°
Rev number
5,814

§ Raw data

SKYTERRA 11 37218U 10061A   26262.62333324 -.00000121  00000+0  00000+0 0  99962 37218   5.3233  50.6279 0000919 149.8822 281.1468  1.00272248 58145

JSON: /api/v1/satellites/37218 · /tle

For live sub-satellite position, see the globe view (requires WebGL).

§ Visibility from observer

Set your observer location to see the next 7 days of passes ≥ 10°. The values pass through the URL so the page stays shareable.

No JS? Fill the form by hand. The geolocation button needs JavaScript.